Tracking 22882 objects as of 18-Apr-2021
HD Live streaming from Space Station
objects crossing your sky now

EKRAN 6

Track EKRAN 6 now!
EKRAN 6 is classified as:


NORAD ID: 12120
Int'l Code: 1980-104A
Perigee: 35,769.8 km
Apogee: 35,839.0 km
Inclination: 10.6 °
Period: 1,436.6 minutes
Semi major axis: 42175 km
RCS: 6.3095 m2 (large)
Launch date: December 26, 1980
Source: Commonwealth of Independent States (former USSR) (CIS)
Launch site: TYURATAM MISSILE AND SPACE COMPLEX (TTMTR)
aabbcc
Your satellite tracking list
Your tracking list is empty




NASA's NSSDC Master Catalog

Two Line Element Set (TLE):
1 12120U 80104A   21108.57112399 -.00000232  00000-0  00000-0 0  9996
2 12120  10.6367 310.2365 0008209  47.9337 144.6395  1.00233816108503
Source of the keplerian elements: AFSPC